This demonstration page uses our WeatherBlox Daily Observations layout. Learn more.

Left ArrowRight Arrow

Hourly Observations for September 12, 2017

Temp ( °F °C ) Dew Point ( °F °C ) Humidity (%) Winds ( mph kmh ) Pressure ( in mb ) Visibility ( mi km ) Precip ( " mm )
12:51 am 00:51 Clear 73 22.8 43 6.1 34 34 SE 6 9 29.86 1011 10 16.0934 0 0
1:51 am 01:51 Clear 73 22.8 43 6.1 34 34 SE 7 11 29.85 1011 10 16.0934 0 0
2:51 am 02:51 Clear 72 22.2 44 6.7 37 37 ESE 8 13 29.85 1011 10 16.0934 0 0
3:51 am 03:51 Clear 73 22.8 44 6.7 35 35 ESE 9 15 29.85 1011 10 16.0934 0 0
4:51 am 04:51 Clear 73 22.8 45 7.2 37 37 SE 8 13 29.86 1011 10 16.0934 0 0
5:51 am 05:51 Clear 71 21.7 46 7.8 41 41 SSE 10 17 29.87 1012 10 16.0934 0 0
6:51 am 06:51 Sunny 73 22.8 45 7.2 37 37 SE 12 19 29.89 1012 10 16.0934 0 0
7:51 am 07:51 Sunny 79 26.1 46 7.8 31 31 SSE 9 15 29.9 1012 10 16.0934 0 0
8:51 am 08:51 Sunny 85 29.4 47 8.3 27 27 SE 14 22 29.89 1012 10 16.0934 0 0
9:51 am 09:51 Sunny 90 32.2 45 7.2 21 21 SE 7 11 29.88 1012 10 16.0934 0 0
10:51 am 10:51 Sunny 93 33.9 42 5.6 17 17 SSE 5 7 29.86 1011 10 16.0934 0 0
11:51 am 11:51 Sunny 97 36.1 41 5 14 14 VRB 6 9 29.83 1010 10 16.0934 0 0
12:51 pm 12:51 Sunny 97 36.1 43 6.1 16 16 SSW 5 7 29.79 1009 10 16.0934 0 0
1:51 pm 13:51 Sunny 99 37.2 44 6.7 15 15 VRB 3 6 29.75 1008 10 16.0934 0 0
2:51 pm 14:51 Sunny 101 38.3 41 5 13 13 VRB 5 7 29.72 1006 10 16.0934 0 0
3:51 pm 15:51 Sunny 101 38.3 38 3.3 11 11 VRB 3 6 29.7 1006 10 16.0934 0 0
4:51 pm 16:51 Sunny 99 37.2 38 3.3 12 12 S 6 9 29.68 1005 10 16.0934 0 0
5:51 pm 17:51 Sunny 97 36.1 41 5 14 14 W 7 11 29.68 1005 10 16.0934 0 0
6:51 pm 18:51 Clear 92 33.3 43 6.1 18 18 WSW 6 9 29.69 1006 10 16.0934 0 0
7:51 pm 19:51 Clear 87 30.6 42 5.6 21 21 N 3 6 29.71 1006 10 16.0934 0 0
8:51 pm 20:51 Clear 85 29.4 42 5.6 22 22 NNW 5 7 29.71 1006 10 16.0934 0 0
9:51 pm 21:51 Clear 83 28.3 43 6.1 24 24 NW 8 13 29.72 1006 10 16.0934 0 0
10:51 pm 22:51 Clear 81 27.2 42 5.6 25 25 N 7 11 29.72 1006 10 16.0934 0 0
11:51 pm 23:51 Clear 79 26.1 43 6.1 28 28 N 7 11 29.71 1006 10 16.0934 0 0

Powered by AerisWeather